WZZ2447 LZIB-LZKZ

Flight info

Callsign WZZ2447
Flight time 1h 18m
Altitude 21000
Route NIT N190 TAKOS
Aircraft A321/M-SDE1E2E3FGIJ1J4RWXY/LB1

Departure

Time 2026-05-08 14:34
Airport M. R. Štefánik Airport (LZIB)

Arrival

Time 2026-05-08 15:53
Airport Košice International Airport (LZKZ)
Time Latitude Longitude Altitude Speed Heading
2026-05-08 13:57 48.17032 17.20259 432 ft 0 kts 315°
2026-05-08 14:25 48.17015 17.20285 428 ft 3 kts 314°
2026-05-08 14:25 48.16999 17.20305 420 ft 4 kts 350°
2026-05-08 14:25 48.16976 17.20297 423 ft 4 kts 39°
2026-05-08 14:26 48.16960 17.20275 420 ft 1 kts 44°
2026-05-08 14:28 48.16966 17.20284 421 ft 3 kts 44°
2026-05-08 14:28 48.16992 17.20322 422 ft 7 kts 44°
2026-05-08 14:29 48.17033 17.20380 431 ft 9 kts 44°
2026-05-08 14:29 48.17084 17.20453 426 ft 11 kts 44°
2026-05-08 14:29 48.17144 17.20540 428 ft 13 kts 46°
2026-05-08 14:29 48.17150 17.20667 422 ft 14 kts 123°
2026-05-08 14:30 48.17082 17.20781 425 ft 15 kts 133°
2026-05-08 14:30 48.17004 17.20902 425 ft 17 kts 134°
2026-05-08 14:30 48.16919 17.21031 423 ft 18 kts 134°
2026-05-08 14:30 48.16831 17.21179 424 ft 19 kts 133°
2026-05-08 14:31 48.16735 17.21324 421 ft 20 kts 134°
2026-05-08 14:31 48.16636 17.21482 421 ft 21 kts 133°
2026-05-08 14:31 48.16530 17.21648 426 ft 23 kts 134°
2026-05-08 14:32 48.16303 17.21999 424 ft 25 kts 134°
2026-05-08 14:32 48.16182 17.22187 423 ft 25 kts 134°
2026-05-08 14:32 48.16057 17.22380 426 ft 26 kts 134°
2026-05-08 14:32 48.15928 17.22579 428 ft 27 kts 134°
2026-05-08 14:33 48.15796 17.22784 417 ft 25 kts 134°
2026-05-08 14:33 48.15706 17.22956 431 ft 20 kts 112°
2026-05-08 14:33 48.15689 17.23148 430 ft 12 kts 59°
2026-05-08 14:33 48.15744 17.23218 420 ft 7 kts
2026-05-08 14:34 48.15800 17.23143 421 ft 28 kts 314°
2026-05-08 14:34 48.16124 17.22642 426 ft 103 kts 314°
2026-05-08 14:34 48.16773 17.21639 433 ft 161 kts 315°
2026-05-08 14:34 48.17574 17.20443 1113 ft 160 kts 320°
2026-05-08 14:35 48.18584 17.19671 1726 ft 171 kts 346°
2026-05-08 14:35 48.19836 17.19693 2011 ft 193 kts 15°
2026-05-08 14:35 48.21034 17.20780 2343 ft 215 kts 46°
2026-05-08 14:35 48.21771 17.22846 2680 ft 241 kts 75°
2026-05-08 14:36 48.22131 17.25416 3164 ft 259 kts 77°
2026-05-08 14:36 48.22483 17.28093 3919 ft 264 kts 77°
2026-05-08 14:36 48.22839 17.30822 4718 ft 270 kts 77°
2026-05-08 14:36 48.23203 17.33611 5470 ft 275 kts 77°
2026-05-08 14:37 48.23574 17.36457 6244 ft 281 kts 77°
2026-05-08 14:37 48.23954 17.39363 6967 ft 286 kts 78°
2026-05-08 14:37 48.24340 17.42315 7710 ft 291 kts 78°
2026-05-08 14:37 48.24735 17.45315 8476 ft 295 kts 78°
2026-05-08 14:38 48.25137 17.48359 9231 ft 300 kts 78°
2026-05-08 14:38 48.25547 17.51455 9974 ft 305 kts 78°
2026-05-08 14:38 48.25969 17.54650 10348 ft 324 kts 78°
2026-05-08 14:38 48.26413 17.58037 10542 ft 346 kts 78°
2026-05-08 14:39 48.26882 17.61634 11055 ft 355 kts 79°
2026-05-08 14:39 48.27356 17.65295 11738 ft 359 kts 79°
2026-05-08 14:39 48.27830 17.68988 12459 ft 362 kts 79°
2026-05-08 14:39 48.28309 17.72711 13188 ft 365 kts 79°
2026-05-08 14:40 48.28793 17.76467 13888 ft 368 kts 79°
2026-05-08 14:40 48.29281 17.80261 14521 ft 371 kts 80°
2026-05-08 14:40 48.29771 17.84084 15143 ft 375 kts 80°
2026-05-08 14:40 48.30266 17.87944 15769 ft 378 kts 79°
2026-05-08 14:41 48.30766 17.91846 16374 ft 382 kts 79°
2026-05-08 14:41 48.31271 17.95787 16996 ft 386 kts 79°
2026-05-08 14:41 48.31778 17.99768 17604 ft 390 kts 79°
2026-05-08 14:41 48.32288 18.03797 18218 ft 394 kts 79°
2026-05-08 14:42 48.32802 18.07862 18751 ft 398 kts 79°
2026-05-08 14:42 48.33319 18.11963 18986 ft 400 kts 79°
2026-05-08 14:42 48.33834 18.16069 19047 ft 399 kts 79°
2026-05-08 14:42 48.34343 18.20157 19048 ft 398 kts 79°
2026-05-08 14:43 48.34758 18.23492 19049 ft 398 kts 79°
2026-05-08 15:23 48.34810 18.23909 19025 ft 398 kts 85°
2026-05-08 15:23 48.35298 18.28005 18731 ft 392 kts 82°
2026-05-08 15:23 48.35769 18.31971 18609 ft 378 kts 81°
2026-05-08 15:23 48.36236 18.35793 18451 ft 366 kts 81°
2026-05-08 15:24 48.36702 18.39505 18521 ft 360 kts 80°
2026-05-08 15:24 48.37173 18.43222 18758 ft 363 kts 80°
2026-05-08 15:24 48.37647 18.46969 18968 ft 366 kts 80°
2026-05-08 15:24 48.38117 18.50737 19034 ft 367 kts 80°
2026-05-08 15:25 48.38584 18.54513 19045 ft 368 kts 80°
2026-05-08 15:25 48.39047 18.58295 19045 ft 367 kts 80°
2026-05-08 15:25 48.39506 18.62069 19042 ft 367 kts 80°
2026-05-08 15:25 48.39964 18.65855 19043 ft 367 kts 80°
2026-05-08 15:26 48.40420 18.69635 19040 ft 367 kts 80°
2026-05-08 15:26 48.40874 18.73415 19046 ft 367 kts 80°
2026-05-08 15:26 48.41325 18.77198 19040 ft 367 kts 80°
2026-05-08 15:26 48.41776 18.80980 19046 ft 368 kts 80°
2026-05-08 15:27 48.42227 18.84775 19040 ft 368 kts 80°
2026-05-08 15:27 48.42671 18.88514 19037 ft 368 kts 80°
2026-05-08 15:27 48.43118 18.92313 19039 ft 368 kts 80°
2026-05-08 15:27 48.43565 18.96116 19039 ft 369 kts 80°
2026-05-08 15:28 48.44012 18.99912 19037 ft 368 kts 80°
2026-05-08 15:28 48.44458 19.03712 19035 ft 369 kts 80°
2026-05-08 15:28 48.44902 19.07516 19035 ft 369 kts 80°
2026-05-08 15:28 48.45344 19.11317 19038 ft 369 kts 80°
2026-05-08 15:29 48.45786 19.15114 19037 ft 369 kts 80°
2026-05-08 15:29 48.46229 19.18917 19037 ft 369 kts 80°
2026-05-08 15:29 48.46671 19.22724 19034 ft 368 kts 80°
2026-05-08 15:29 48.47109 19.26530 19035 ft 368 kts 80°
2026-05-08 15:30 48.47545 19.30330 19035 ft 368 kts 81°
2026-05-08 15:30 48.47979 19.34130 19036 ft 368 kts 81°
2026-05-08 15:30 48.48411 19.37934 19030 ft 369 kts 80°
2026-05-08 15:30 48.48845 19.41743 19032 ft 369 kts 80°
2026-05-08 15:31 48.49279 19.45563 19034 ft 370 kts 80°
2026-05-08 15:31 48.49710 19.49377 19031 ft 369 kts 81°
2026-05-08 15:31 48.50141 19.53198 19032 ft 369 kts 81°
2026-05-08 15:31 48.50570 19.57015 19028 ft 369 kts 81°
2026-05-08 15:32 48.50997 19.60830 19033 ft 370 kts 80°
2026-05-08 15:32 48.51425 19.64648 19029 ft 370 kts 80°
2026-05-08 15:32 48.51857 19.68476 19030 ft 369 kts 80°
2026-05-08 15:32 48.52287 19.72290 19029 ft 369 kts 80°
2026-05-08 15:33 48.52719 19.76116 19034 ft 370 kts 80°
2026-05-08 15:33 48.53150 19.79934 19031 ft 370 kts 80°
2026-05-08 15:33 48.53578 19.83754 19033 ft 370 kts 80°
2026-05-08 15:33 48.54003 19.87579 19031 ft 369 kts 80°
2026-05-08 15:34 48.54425 19.91404 19031 ft 369 kts 80°
2026-05-08 15:34 48.54845 19.95205 18822 ft 366 kts 80°
2026-05-08 15:34 48.55261 19.98975 18392 ft 363 kts 80°
2026-05-08 15:34 48.55673 20.02725 17941 ft 361 kts 80°
2026-05-08 15:35 48.56079 20.06450 17485 ft 358 kts 81°
2026-05-08 15:35 48.56479 20.10144 17023 ft 355 kts 81°
2026-05-08 15:35 48.56874 20.13814 16594 ft 353 kts 81°
2026-05-08 15:35 48.57263 20.17456 16174 ft 350 kts 81°
2026-05-08 15:36 48.57651 20.21070 15748 ft 348 kts 81°
2026-05-08 15:36 48.57908 20.23454 15465 ft 347 kts 81°
2026-05-08 15:36 48.58078 20.28232 14905 ft 343 kts 96°
2026-05-08 15:36 48.57740 20.31826 14498 ft 341 kts 99°
2026-05-08 15:37 48.57380 20.35348 14099 ft 339 kts 99°
2026-05-08 15:37 48.57023 20.38862 13679 ft 338 kts 99°
2026-05-08 15:37 48.56670 20.42362 13233 ft 336 kts 99°
2026-05-08 15:37 48.56320 20.45830 12809 ft 333 kts 99°
2026-05-08 15:38 48.55976 20.49221 12438 ft 330 kts 99°
2026-05-08 15:38 48.55630 20.52632 12054 ft 327 kts 99°
2026-05-08 15:38 48.55288 20.55987 11452 ft 320 kts 99°
2026-05-08 15:38 48.54950 20.59294 10631 ft 317 kts 99°
2026-05-08 15:39 48.54615 20.62552 9872 ft 312 kts 99°
2026-05-08 15:39 48.54291 20.65708 9306 ft 299 kts 99°
2026-05-08 15:39 48.53973 20.68781 8571 ft 294 kts 99°
2026-05-08 15:39 48.53657 20.71809 7835 ft 291 kts 99°
2026-05-08 15:40 48.53343 20.74810 7113 ft 288 kts 99°
2026-05-08 15:40 48.53031 20.77772 6414 ft 284 kts 99°
2026-05-08 15:40 48.52726 20.80686 5713 ft 279 kts 99°
2026-05-08 15:40 48.52527 20.82593 5279 ft 276 kts 98°
2026-05-08 15:41 48.52229 20.85425 5047 ft 274 kts 99°
2026-05-08 15:41 48.51931 20.88266 5000 ft 275 kts 98°
2026-05-08 15:41 48.51630 20.91122 5016 ft 278 kts 98°
2026-05-08 15:41 48.51325 20.93986 4807 ft 276 kts 99°
2026-05-08 15:42 48.51018 20.96851 4343 ft 278 kts 98°
2026-05-08 15:42 48.50708 20.99762 4027 ft 274 kts 98°
2026-05-08 15:42 48.50412 21.02557 3998 ft 269 kts 98°
2026-05-08 15:42 48.50078 21.05282 4004 ft 258 kts 101°
2026-05-08 15:43 48.49698 21.07845 3997 ft 242 kts 103°
2026-05-08 15:43 48.49324 21.10207 4004 ft 231 kts 103°
2026-05-08 15:43 48.48948 21.12557 4000 ft 230 kts 103°
2026-05-08 15:43 48.48621 21.14916 4010 ft 230 kts 91°
2026-05-08 15:44 48.49003 21.17119 4010 ft 214 kts 54°
2026-05-08 15:44 48.50136 21.18462 4009 ft 208 kts 18°
2026-05-08 15:44 48.51564 21.18742 4009 ft 207 kts
2026-05-08 15:44 48.52982 21.19126 4015 ft 208 kts 13°
2026-05-08 15:45 48.54386 21.19671 4014 ft 208 kts 14°
2026-05-08 15:45 48.55749 21.20389 4005 ft 209 kts 28°
2026-05-08 15:45 48.56731 21.21961 4003 ft 210 kts 65°
2026-05-08 15:45 48.57035 21.24115 4015 ft 212 kts 91°
2026-05-08 15:46 48.56642 21.26233 4012 ft 214 kts 121°
2026-05-08 15:46 48.55577 21.27760 4011 ft 214 kts 153°
2026-05-08 15:46 48.54138 21.28235 4013 ft 215 kts 185°
2026-05-08 15:46 48.52742 21.27543 4013 ft 212 kts 216°
2026-05-08 15:47 48.51756 21.25923 4016 ft 211 kts 238°
2026-05-08 15:47 48.50938 21.24087 4010 ft 211 kts 237°
2026-05-08 15:47 48.50118 21.22254 4008 ft 211 kts 237°
2026-05-08 15:47 48.49309 21.20423 3883 ft 208 kts 241°
2026-05-08 15:48 48.49548 21.16500 3201 ft 200 kts 322°
2026-05-08 15:48 48.50809 21.15914 3034 ft 188 kts
2026-05-08 15:48 48.51836 21.16867 3021 ft 169 kts 48°
2026-05-08 15:49 48.52627 21.18097 3010 ft 160 kts 42°
2026-05-08 15:49 48.53503 21.19101 2965 ft 157 kts 28°
2026-05-08 15:49 48.54489 21.19763 2828 ft 155 kts 20°
2026-05-08 15:49 48.55506 21.20251 2654 ft 152 kts 16°
2026-05-08 15:50 48.56529 21.20663 2483 ft 150 kts 15°
2026-05-08 15:50 48.57546 21.21041 2277 ft 147 kts 14°
2026-05-08 15:50 48.58516 21.21389 2074 ft 141 kts 13°
2026-05-08 15:50 48.59453 21.21720 1884 ft 138 kts 14°
2026-05-08 15:51 48.60379 21.22045 1702 ft 136 kts 14°
2026-05-08 15:51 48.61284 21.22362 1475 ft 136 kts 13°
2026-05-08 15:51 48.62205 21.22701 1324 ft 137 kts 13°
2026-05-08 15:51 48.63132 21.23004 1118 ft 136 kts 14°
2026-05-08 15:52 48.64041 21.23339 974 ft 134 kts 14°
2026-05-08 15:52 48.64950 21.23646 796 ft 134 kts 14°
2026-05-08 15:52 48.65799 21.23943 757 ft 110 kts 13°
2026-05-08 15:52 48.66377 21.24145 757 ft 60 kts 13°
2026-05-08 15:53 48.66751 21.24276 756 ft 51 kts 13°
2026-05-08 15:53 48.67055 21.24382 758 ft 33 kts 12°
2026-05-08 15:53 48.67194 21.24415 754 ft 17 kts 346°
2026-05-08 15:53 48.67246 21.24299 757 ft 0 kts 284°
2026-05-08 15:54 48.67246 21.24297 757 ft 1 kts 284°
2026-05-08 15:54 48.67254 21.24256 756 ft 6 kts 284°
2026-05-08 15:54 48.67250 21.24188 757 ft 7 kts 237°
2026-05-08 15:54 48.67199 21.24156 757 ft 9 kts 197°
2026-05-08 15:55 48.67174 21.24088 756 ft 6 kts 293°
2026-05-08 15:55 48.67217 21.24087 757 ft 1 kts 12°
2026-05-08 15:55 48.67222 21.24089 757 ft 0 kts 12°